SCP
0 0 0 0 0 0 0 0 0 0 0 0 0 0 0 0 0 0 0 0 0 0 0 1 0 0 0 1 1 1 0 1 1 1 1 1 1 0 0 0 1 1 1
0 0 0 0 0 0 0 0 0 0 0 0 0 0 0 0 0 0 0 0 0 0 0 0 0 0 1 0 1 0 0 0 0 0 0 0 0 0 0 0 1 1 1
0 0 0 0 0 0 0 0 0 0 0 0 0 0 0 0 0 0 0 0 0 0 0 0 0 0 0 0 1 1 0 0 0 0 0 0 0 0 0 1 1 1 0
0 0 0 0 0 0 0 0 0 0 0 0 0 0 0 0 0 0 0 0 0 0 0 0 0 0 0 0 0 0 0 0 0 0 0 0 0 0 0 0 0 1 1
0 0 0 0 0 0 0 0 0 0 0 0 0 0 0 0 0 0 0 0 0 0 0 0 0 0 0 0 0 0 0 0 0 0 0 0 0 0 0 0 0 0 0
0 0 0 0 0 0 0 0 0 0 0 0 0 0 0 0 0 0 0 0 0 0 0 0 0 0 0 0 0 -0 0 0 0 0 0 0 0 0 0 0 0 0 0
0 0 0 0 0 0 0 0 0 0 0 -0 0 0 0 0 0 0 0 0 0 0 0 0 0 0 0 -0 0 0 -0 0 0 0 0 0 0 0 0 0 0 0 0
0 0 0 0 0 0 0 0 0 0 0 0 0 0 0 0 0 0 0 0 0 0 0 0 0 0 0 0 -0 -0 -0 0 0 0 0 0 0 0 0 0 0 0 0
0 0 0 0 0 0 0 0 0 0 0 0 0 0 0 0 0 0 0 0 0 0 0 0 0 0 0 0 0 -0 -0 -0 0 0 0 0 0 0 0 0 0 0 0
0 0 0 0 0 0 0 0 0 0 0 0 0 0 0 0 0 0 0 0 0 0 0 0 0 0 0 0 0 0 0 0 -0 -0 -0 0 0 0 0 0 0 0 0
0 0 0 0 0 0 0 0 0 0 0 0 0 0 0 0 0 0 0 0 0 0 0 0 0 0 0 0 0 0 0 0 0 0 0 0 0 0 0 0 0 0 0
0 0 0 0 0 0 0 0 0 0 0 0 0 0 0 0 0 0 0 0 0 0 0 0 0 0 0 0 0 0 0 0 0 0 0 0 0 0 0 0 0 0 0
0 0 0 0 0 0 0 0 0 0 0 0 0 0 0 0 0 0 0 0 0 0 0 0 0 0 0 0 0 0 0 0 0 0 0 0 0 0 0 0 0 0 0
0 0 0 0 0 0 0 0 0 0 0 0 0 0 0 0 0 0 0 0 0 0 0 0 0 0 0 0 0 -0 0 0 0 0 0 0 0 0 0 0 0 0 0
0 0 0 0 0 0 0 0 0 0 0 0 0 0 0 0 0 0 0 0 0 0 0 0 0 0 0 0 0 -0 0 -0 -0 0 0 0 0 0 0 0 0 0 0
0 0 0 0 0 0 0 0 0 0 0 0 0 0 0 0 0 0 0 0 0 0 0 0 0 0 0 0 0 0 0 0 -0 -0 -0 -0 -0 0 0 0 0 0 0
0 0 0 0 0 0 0 0 0 0 0 0 0 0 0 0 0 0 0 0 0 0 0 -0 0 0 0 -0 -0 -0 -0 -0 -0 -0 -0 0 0 0 0 0 0 0 0
0 0 0 0 0 0 0 0 0 0 0 0 0 0 0 0 0 0 0 0 0 0 0 0 0 0 -0 0 0 -0 -0 -0 0 0 -0 0 0 0 0 0 0 0 0
0 0 0 0 0 0 0 0 0 0 0 0 0 0 0 0 0 0 0 0 0 0 0 0 0 0 0 0 0 0 0 0 0 0 0 0 0 0 0 0 0 0 0
0 0 0 0 0 0 0 0 0 0 0 0 0 0 0 0 0 0 0 0 0 0 0 0 0 0 0 0 0 0 0 0 0 0 0 0 0 0 0 0 0 0 0
0 0 0 0 0 0 0 0 0 0 0 0 0 0 0 0 0 0 0 0 0 0 0 0 0 0 0 0 0 0 0 0 0 0 0 0 0 0 0 0 0 0 0
0 0 0 0 0 0 0 0 0 0 0 0 0 0 0 0 0 0 0 0 0 0 0 0 0 0 0 0 0 0 0 0 0 0 0 0 0 0 0 0 0 0 0
0 0 0 0 0 0 0 0 0 0 0 0 0 0 0 0 0 0 0 0 0 0 0 0 0 0 0 0 0 0 0 0 0 0 0 0 0 0 0 0 0 0 0
1 0 0 0 0 0 0 0 0 0 0 0 0 0 0 0 0 0 0 0 0 0 0 0 0 0 0 0 0 0 0 0 0 0 0 0 0 0 0 0 0 0 0
1 1 0 0 0 0 0 0 0 0 0 0 0 0 0 0 0 0 0 0 0 0 0 0 0 0 0 0 0 0 0 0 0 -0 0 0 0 0 0 0 -0 -0 0
1 1 0 0 0 0 0 0 0 0 0 0 0 0 0 0 0 0 0 0 0 0 0 0 0 0 0 0 0 0 0 0 0 0 0 0 0 0 0 0 0 0 -0
Wind_Speed_500mb
36 19 32 30 33 28 33 36 36 32 29 27 24 28 31 32 29 23 29 32 36 35 34 35 40 44 46 40 43 42 43 37 37 38 37 36 34 30 27 24 24 23 31
39 27 33 34 37 33 38 30 30 31 32 27 27 28 26 23 28 29 30 30 35 36 31 31 32 36 43 44 37 44 52 48 41 40 38 37 35 33 30 26 23 23 20
41 29 32 34 32 37 33 33 23 19 22 29 31 25 24 21 21 28 21 23 23 29 38 30 32 34 44 46 46 40 38 40 37 39 34 31 30 32 33 29 25 21 20
37 27 31 33 28 31 37 43 27 34 20 40 29 27 35 19 19 18 18 28 37 39 30 23 24 30 36 31 33 47 41 43 39 37 32 27 26 25 29 31 27 23 20
34 26 31 33 29 33 40 54 33 26 34 35 31 30 26 16 13 22 23 26 35 32 20 26 25 27 34 47 52 30 15 39 50 36 32 27 23 21 20 22 25 24 23
31 32 22 32 26 34 39 51 36 30 30 43 34 29 21 16 17 12 17 19 31 30 19 23 26 28 30 36 55 61 41 58 54 49 39 36 25 21 17 15 17 21 25
31 32 28 32 19 31 43 43 42 35 37 41 37 10 14 6 6 20 10 17 19 25 19 23 20 20 19 7 28 22 40 48 23 33 59 44 37 22 15 13 12 16 21
29 28 33 39 32 31 41 43 38 39 23 24 38 24 14 6 24 28 22 16 21 23 19 20 19 14 13 8 9 6 10 22 18 21 9 44 23 19 13 11 13 16 19
29 32 30 34 34 34 44 42 34 34 39 31 19 24 17 16 43 26 33 31 25 22 24 19 16 14 11 5 3 4 5 8 7 11 10 4 7 3 19 11 16 20 22
20 34 29 26 32 30 40 44 34 33 30 33 30 20 23 27 21 28 37 38 35 27 20 16 16 13 11 6 3 2 5 8 1 7 13 11 13 22 26 18 20 23 24
27 33 31 27 30 25 35 36 36 33 33 27 32 23 24 25 21 31 40 42 38 32 18 21 23 16 11 12 6 3 6 7 12 17 20 23 27 29 31 32 31 30 27
21 33 33 28 27 32 28 33 30 35 30 27 30 27 25 33 39 33 39 36 38 34 24 20 21 12 8 5 5 7 12 12 20 24 26 28 29 30 34 37 37 38 35
21 31 33 25 27 29 32 26 24 41 38 31 31 30 24 25 28 34 33 33 36 33 17 14 11 9 3 10 12 16 17 17 19 22 25 24 26 30 31 33 36 37 36
19 25 29 23 22 22 28 21 20 27 36 39 34 33 35 22 24 27 30 32 36 29 29 18 12 7 7 12 15 19 28 18 17 16 17 18 22 27 32 33 34 34 36
18 22 24 27 25 22 29 32 25 26 29 32 35 34 36 31 30 25 28 24 26 23 28 27 28 13 8 11 16 23 24 18 14 12 14 16 18 19 25 29 33 36 39
21 21 19 26 27 24 30 32 34 29 32 29 28 28 34 30 31 27 35 22 23 20 20 20 25 22 16 13 19 24 26 22 22 20 22 27 29 27 29 32 35 37 40
22 23 23 23 25 27 27 32 32 33 32 32 27 23 31 29 30 25 29 25 22 26 26 22 15 20 20 22 19 21 20 22 19 19 22 29 27 30 35 37 36 39 43
26 25 23 24 25 25 27 34 35 34 32 33 36 28 24 29 27 24 19 19 22 28 30 28 26 17 21 25 24 26 22 21 20 19 19 23 25 31 30 33 36 37 34
26 27 27 27 27 30 31 32 36 35 35 37 37 40 32 28 31 30 31 20 20 25 19 29 32 28 26 24 29 24 23 25 26 26 29 31 31 35 33 35 39 36 45
28 27 31 30 32 30 31 38 34 37 51 53 47 41 42 32 32 33 43 34 25 29 21 24 28 33 27 25 31 29 23 21 29 28 36 30 32 34 36 39 43 48 61
28 26 33 35 35 38 39 40 42 47 52 56 50 45 37 38 37 36 39 38 34 32 31 23 21 25 22 26 16 20 19 28 27 31 33 30 34 36 40 42 44 53 68
31 36 39 38 40 43 39 42 47 54 58 59 58 51 40 44 33 39 40 39 34 34 34 31 31 29 27 25 18 20 25 27 31 24 22 29 32 34 39 43 47 63 58
39 42 42 43 45 47 48 44 46 56 63 65 65 49 42 40 41 44 42 39 34 34 38 37 38 33 35 24 26 27 25 30 40 33 37 37 31 31 37 38 45 64 43
45 49 50 53 53 54 54 54 50 55 62 64 59 48 49 46 40 35 36 38 40 41 41 41 39 35 31 30 27 32 42 48 43 42 12 23 18 33 30 42 53 34 46
51 54 57 60 61 67 68 68 65 66 67 65 60 44 45 48 48 39 34 41 44 45 40 34 37 43 37 36 37 39 38 40 41 34 21 14 27 31 33 40 50 42 37
58 61 68 70 69 74 78 72 71 70 59 55 62 49 41 39 39 38 40 45 45 49 45 44 43 44 38 36 33 36 35 32 31 28 26 33 31 33 35 32 50 32 35
Wind_Direction_500mb
359 27 9 352 336 4 355 349 342 349 340 341 332 326 329 338 331 310 298 312 313 309 287 277 271 259 254 246 250 251 246 242 241 238 236 235 235 233 234 237 238 236 229
358 37 7 351 341 20 360 345 346 350 342 337 333 326 330 331 327 321 317 320 307 311 299 289 280 269 245 243 241 249 244 237 237 231 230 232 231 231 231 230 231 233 233
355 37 359 348 24 18 336 323 328 349 353 349 332 317 328 311 345 329 330 305 291 302 306 300 294 263 247 244 234 229 235 230 230 220 217 221 224 227 228 228 228 225 223
355 46 359 352 18 2 321 336 353 360 354 355 330 335 336 319 343 29 1 329 305 303 296 309 326 292 270 269 231 228 226 220 216 206 204 210 213 215 221 222 222 220 210
356 29 6 349 357 357 335 339 1 3 355 332 328 327 327 316 325 312 319 337 328 324 287 302 312 307 275 235 248 222 334 242 219 206 195 200 195 197 206 211 213 214 207
355 2 15 348 2 356 336 342 358 358 9 345 345 333 352 287 295 327 339 345 337 337 328 309 319 320 323 263 258 254 258 319 200 195 189 180 178 182 192 200 200 205 206
360 1 19 348 27 10 340 346 357 5 8 337 348 23 352 237 301 349 343 317 327 326 327 322 332 326 327 293 264 263 269 276 224 185 203 184 173 175 193 213 221 218 212
4 6 11 3 32 14 336 354 360 355 357 357 0 6 349 291 328 344 335 338 326 327 328 335 342 339 13 299 198 92 68 224 301 225 141 168 150 186 183 228 241 242 231
360 7 8 3 14 358 347 2 10 3 1 13 24 9 352 344 345 343 349 338 323 323 328 327 328 344 1 12 146 107 138 123 86 272 260 261 239 9 226 238 265 253 244
352 350 358 11 6 5 353 0 13 11 6 0 8 12 343 328 321 323 338 342 331 321 303 312 310 320 321 324 246 257 303 8 23 170 208 226 258 257 277 258 255 253 251
339 337 352 7 357 15 356 7 18 11 6 2 4 350 349 334 335 334 326 336 332 342 340 307 306 295 286 266 259 298 244 241 243 246 248 242 244 247 252 258 253 251 253
333 325 346 2 358 6 3 0 7 3 0 358 359 4 354 345 335 334 333 330 325 341 337 322 338 307 269 295 287 281 302 286 256 253 254 254 254 251 249 251 255 256 250
333 323 344 352 359 358 8 12 352 354 9 6 353 350 345 342 343 334 338 337 336 339 353 342 329 333 312 296 302 311 299 285 278 271 266 264 265 263 258 257 258 259 261
314 325 337 337 346 345 343 352 357 350 351 358 350 345 345 331 323 334 334 334 335 345 336 353 335 295 285 296 306 304 294 282 290 288 285 281 275 271 267 262 261 263 265
307 308 332 326 336 333 337 347 348 351 345 356 350 348 357 343 3 332 330 334 334 329 337 349 342 334 290 275 291 304 290 296 305 300 306 312 300 294 280 272 270 270 271
310 322 318 321 327 325 323 331 343 339 340 342 345 337 340 344 353 339 340 319 331 328 313 342 343 330 319 279 285 287 288 293 294 283 287 294 299 289 283 280 280 275 269
315 316 327 310 322 318 317 316 331 338 333 325 331 321 333 340 340 351 347 348 333 337 321 311 314 334 328 322 308 304 313 300 308 281 281 292 303 300 295 289 284 281 276
310 306 315 317 307 309 316 310 319 325 330 323 323 311 309 318 326 327 331 328 347 334 333 337 341 326 315 314 308 322 319 313 323 309 296 297 311 319 314 303 294 292 294
301 302 307 316 317 313 299 299 305 318 311 306 307 307 303 293 303 306 321 321 325 319 308 306 324 328 308 309 304 299 307 322 319 309 307 306 310 316 311 311 311 303 304
298 302 303 304 304 303 309 309 309 293 299 304 305 299 303 298 288 287 303 311 307 309 317 317 323 314 329 317 304 308 305 321 314 312 307 304 304 307 305 305 305 304 310
296 292 293 300 303 303 298 298 300 300 310 312 308 302 294 293 289 295 298 300 305 310 306 301 298 320 322 329 328 322 305 309 300 307 306 294 295 290 300 301 298 311 312
302 297 293 288 287 287 290 290 292 298 307 311 310 307 298 291 296 297 288 298 303 308 310 305 291 287 297 297 295 290 292 292 300 283 285 280 283 292 295 290 292 311 308
296 296 298 297 294 293 293 291 290 296 303 308 308 306 300 299 285 286 287 288 293 295 298 300 294 288 291 289 285 292 300 301 308 306 295 278 285 286 294 282 301 312 301
299 302 304 303 300 299 300 298 293 290 294 299 304 306 303 298 310 296 290 290 293 296 296 293 292 288 283 293 286 296 299 303 305 316 300 266 281 292 287 295 320 312 308
301 304 305 305 301 304 304 305 298 289 291 294 293 291 292 295 299 303 291 287 290 303 307 300 284 284 277 285 281 286 295 300 299 311 294 291 325 311 310 316 333 321 320
302 305 305 305 302 298 301 309 310 297 288 284 282 285 297 299 299 291 296 298 288 303 306 297 298 293 280 277 265 275 279 282 290 297 304 308 319 319 323 325 341 327 336
Wind_Speed_850mb
36 19 32 30 33 28 33 36 36 32 29 27 24 28 31 32 29 23 29 32 36 35 34 35 40 44 46 40 43 42 43 37 37 38 37 36 34 30 27 24 24 23 31
39 27 33 34 37 33 38 30 30 31 32 27 27 28 26 23 28 29 30 30 35 36 31 31 32 36 43 44 37 44 52 48 41 40 38 37 35 33 30 26 23 23 20
41 29 32 34 32 37 33 33 23 19 22 29 31 25 24 21 21 28 21 23 23 29 38 30 32 34 44 46 46 40 38 40 37 39 34 31 30 32 33 29 25 21 20
37 27 31 33 28 31 37 43 27 34 20 40 29 27 35 19 19 18 18 28 37 39 30 23 24 30 36 31 33 47 41 43 39 37 32 27 26 25 29 31 27 23 20
34 26 31 33 29 33 40 54 33 26 34 35 31 30 26 16 13 22 23 26 35 32 20 26 25 27 34 47 52 30 15 39 50 36 32 27 23 21 20 22 25 24 23
31 32 22 32 26 34 39 51 36 30 30 43 34 29 21 16 17 12 17 19 31 30 19 23 26 28 30 36 55 61 41 58 54 49 39 36 25 21 17 15 17 21 25
31 32 28 32 19 31 43 43 42 35 37 41 37 10 14 6 6 20 10 17 19 25 19 23 20 20 19 7 28 22 40 48 23 33 59 44 37 22 15 13 12 16 21
29 28 33 39 32 31 41 43 38 39 23 24 38 24 14 6 24 28 22 16 21 23 19 20 19 14 13 8 9 6 10 22 18 21 9 44 23 19 13 11 13 16 19
29 32 30 34 34 34 44 42 34 34 39 31 19 24 17 16 43 26 33 31 25 22 24 19 16 14 11 5 3 4 5 8 7 11 10 4 7 3 19 11 16 20 22
20 34 29 26 32 30 40 44 34 33 30 33 30 20 23 27 21 28 37 38 35 27 20 16 16 13 11 6 3 2 5 8 1 7 13 11 13 22 26 18 20 23 24
27 33 31 27 30 25 35 36 36 33 33 27 32 23 24 25 21 31 40 42 38 32 18 21 23 16 11 12 6 3 6 7 12 17 20 23 27 29 31 32 31 30 27
21 33 33 28 27 32 28 33 30 35 30 27 30 27 25 33 39 33 39 36 38 34 24 20 21 12 8 5 5 7 12 12 20 24 26 28 29 30 34 37 37 38 35
21 31 33 25 27 29 32 26 24 41 38 31 31 30 24 25 28 34 33 33 36 33 17 14 11 9 3 10 12 16 17 17 19 22 25 24 26 30 31 33 36 37 36
19 25 29 23 22 22 28 21 20 27 36 39 34 33 35 22 24 27 30 32 36 29 29 18 12 7 7 12 15 19 28 18 17 16 17 18 22 27 32 33 34 34 36
18 22 24 27 25 22 29 32 25 26 29 32 35 34 36 31 30 25 28 24 26 23 28 27 28 13 8 11 16 23 24 18 14 12 14 16 18 19 25 29 33 36 39
21 21 19 26 27 24 30 32 34 29 32 29 28 28 34 30 31 27 35 22 23 20 20 20 25 22 16 13 19 24 26 22 22 20 22 27 29 27 29 32 35 37 40
22 23 23 23 25 27 27 32 32 33 32 32 27 23 31 29 30 25 29 25 22 26 26 22 15 20 20 22 19 21 20 22 19 19 22 29 27 30 35 37 36 39 43
26 25 23 24 25 25 27 34 35 34 32 33 36 28 24 29 27 24 19 19 22 28 30 28 26 17 21 25 24 26 22 21 20 19 19 23 25 31 30 33 36 37 34
26 27 27 27 27 30 31 32 36 35 35 37 37 40 32 28 31 30 31 20 20 25 19 29 32 28 26 24 29 24 23 25 26 26 29 31 31 35 33 35 39 36 45
28 27 31 30 32 30 31 38 34 37 51 53 47 41 42 32 32 33 43 34 25 29 21 24 28 33 27 25 31 29 23 21 29 28 36 30 32 34 36 39 43 48 61
28 26 33 35 35 38 39 40 42 47 52 56 50 45 37 38 37 36 39 38 34 32 31 23 21 25 22 26 16 20 19 28 27 31 33 30 34 36 40 42 44 53 68
31 36 39 38 40 43 39 42 47 54 58 59 58 51 40 44 33 39 40 39 34 34 34 31 31 29 27 25 18 20 25 27 31 24 22 29 32 34 39 43 47 63 58
39 42 42 43 45 47 48 44 46 56 63 65 65 49 42 40 41 44 42 39 34 34 38 37 38 33 35 24 26 27 25 30 40 33 37 37 31 31 37 38 45 64 43
45 49 50 53 53 54 54 54 50 55 62 64 59 48 49 46 40 35 36 38 40 41 41 41 39 35 31 30 27 32 42 48 43 42 12 23 18 33 30 42 53 34 46
51 54 57 60 61 67 68 68 65 66 67 65 60 44 45 48 48 39 34 41 44 45 40 34 37 43 37 36 37 39 38 40 41 34 21 14 27 31 33 40 50 42 37
58 61 68 70 69 74 78 72 71 70 59 55 62 49 41 39 39 38 40 45 45 49 45 44 43 44 38 36 33 36 35 32 31 28 26 33 31 33 35 32 50 32 35
Wind_Direction_850mb
359 27 9 352 336 4 355 349 342 349 340 341 332 326 329 338 331 310 298 312 313 309 287 277 271 259 254 246 250 251 246 242 241 238 236 235 235 233 234 237 238 236 229
358 37 7 351 341 20 360 345 346 350 342 337 333 326 330 331 327 321 317 320 307 311 299 289 280 269 245 243 241 249 244 237 237 231 230 232 231 231 231 230 231 233 233
355 37 359 348 24 18 336 323 328 349 353 349 332 317 328 311 345 329 330 305 291 302 306 300 294 263 247 244 234 229 235 230 230 220 217 221 224 227 228 228 228 225 223
355 46 359 352 18 2 321 336 353 360 354 355 330 335 336 319 343 29 1 329 305 303 296 309 326 292 270 269 231 228 226 220 216 206 204 210 213 215 221 222 222 220 210
356 29 6 349 357 357 335 339 1 3 355 332 328 327 327 316 325 312 319 337 328 324 287 302 312 307 275 235 248 222 334 242 219 206 195 200 195 197 206 211 213 214 207
355 2 15 348 2 356 336 342 358 358 9 345 345 333 352 287 295 327 339 345 337 337 328 309 319 320 323 263 258 254 258 319 200 195 189 180 178 182 192 200 200 205 206
360 1 19 348 27 10 340 346 357 5 8 337 348 23 352 237 301 349 343 317 327 326 327 322 332 326 327 293 264 263 269 276 224 185 203 184 173 175 193 213 221 218 212
4 6 11 3 32 14 336 354 360 355 357 357 0 6 349 291 328 344 335 338 326 327 328 335 342 339 13 299 198 92 68 224 301 225 141 168 150 186 183 228 241 242 231
360 7 8 3 14 358 347 2 10 3 1 13 24 9 352 344 345 343 349 338 323 323 328 327 328 344 1 12 146 107 138 123 86 272 260 261 239 9 226 238 265 253 244
352 350 358 11 6 5 353 0 13 11 6 0 8 12 343 328 321 323 338 342 331 321 303 312 310 320 321 324 246 257 303 8 23 170 208 226 258 257 277 258 255 253 251
339 337 352 7 357 15 356 7 18 11 6 2 4 350 349 334 335 334 326 336 332 342 340 307 306 295 286 266 259 298 244 241 243 246 248 242 244 247 252 258 253 251 253
333 325 346 2 358 6 3 0 7 3 0 358 359 4 354 345 335 334 333 330 325 341 337 322 338 307 269 295 287 281 302 286 256 253 254 254 254 251 249 251 255 256 250
333 323 344 352 359 358 8 12 352 354 9 6 353 350 345 342 343 334 338 337 336 339 353 342 329 333 312 296 302 311 299 285 278 271 266 264 265 263 258 257 258 259 261
314 325 337 337 346 345 343 352 357 350 351 358 350 345 345 331 323 334 334 334 335 345 336 353 335 295 285 296 306 304 294 282 290 288 285 281 275 271 267 262 261 263 265
307 308 332 326 336 333 337 347 348 351 345 356 350 348 357 343 3 332 330 334 334 329 337 349 342 334 290 275 291 304 290 296 305 300 306 312 300 294 280 272 270 270 271
310 322 318 321 327 325 323 331 343 339 340 342 345 337 340 344 353 339 340 319 331 328 313 342 343 330 319 279 285 287 288 293 294 283 287 294 299 289 283 280 280 275 269
315 316 327 310 322 318 317 316 331 338 333 325 331 321 333 340 340 351 347 348 333 337 321 311 314 334 328 322 308 304 313 300 308 281 281 292 303 300 295 289 284 281 276
310 306 315 317 307 309 316 310 319 325 330 323 323 311 309 318 326 327 331 328 347 334 333 337 341 326 315 314 308 322 319 313 323 309 296 297 311 319 314 303 294 292 294
301 302 307 316 317 313 299 299 305 318 311 306 307 307 303 293 303 306 321 321 325 319 308 306 324 328 308 309 304 299 307 322 319 309 307 306 310 316 311 311 311 303 304
298 302 303 304 304 303 309 309 309 293 299 304 305 299 303 298 288 287 303 311 307 309 317 317 323 314 329 317 304 308 305 321 314 312 307 304 304 307 305 305 305 304 310
296 292 293 300 303 303 298 298 300 300 310 312 308 302 294 293 289 295 298 300 305 310 306 301 298 320 322 329 328 322 305 309 300 307 306 294 295 290 300 301 298 311 312
302 297 293 288 287 287 290 290 292 298 307 311 310 307 298 291 296 297 288 298 303 308 310 305 291 287 297 297 295 290 292 292 300 283 285 280 283 292 295 290 292 311 308
296 296 298 297 294 293 293 291 290 296 303 308 308 306 300 299 285 286 287 288 293 295 298 300 294 288 291 289 285 292 300 301 308 306 295 278 285 286 294 282 301 312 301
299 302 304 303 300 299 300 298 293 290 294 299 304 306 303 298 310 296 290 290 293 296 296 293 292 288 283 293 286 296 299 303 305 316 300 266 281 292 287 295 320 312 308
301 304 305 305 301 304 304 305 298 289 291 294 293 291 292 295 299 303 291 287 290 303 307 300 284 284 277 285 281 286 295 300 299 311 294 291 325 311 310 316 333 321 320
302 305 305 305 302 298 301 309 310 297 288 284 282 285 297 299 299 291 296 298 288 303 306 297 298 293 280 277 265 275 279 282 290 297 304 308 319 319 323 325 341 327 336